Regional Weather Roundup
Issued by NWS

Home | Current Version | Previous Version | Graphics & Text | Print | Product List | Glossary On
Versions: 1 2 3 4 5 6 7 8 9 10 11 12 13 14 15 16 17 18 19 20 21 22 23 24 25 26 27 28 29 30 31 32 33 34 35 36 37 38 39 40 41 42 43 44 45 46 47 48 49 50
000
ASUS43 KMKX 290959
RWRWI

WISCONSIN REGIONAL WEATHER ROUNDUP
NATIONAL WEATHER SERVICE MILWAUKEE/SULLIVAN WI
400 AM CST THU JAN 29 2015

NOTE: "FAIR" INDICATES FEW OR NO CLOUDS BELOW 12,000 FEET WITH NO
SIGNIFICANT WEATHER AND/OR OBSTRUCTIONS TO VISIBILITY.

WIZ001-002-006>008-014>016-023>028-291100-
NORTHWEST WISCONSIN

CITY           SKY/WX    TMP DP  RH WIND       PRES   REMARKS
SUPERIOR ARPT  CLOUDY    32  27  80 N15G22    29.91R WCI  22
ASHLAND        CLOUDY    30  27  88 NW9       29.86R WCI  22
HAYWARD        CLOUDY    29  27  92 NW7       29.84R FOG     WCI  22
SIREN          CLOUDY    31  30  97 NW9       29.89R FOG     WCI  22
CUMBERLAND     CLOUDY    30  28  93 NW13      29.85R FOG     WCI  20
RICE LAKE      CLOUDY    30  28  94 NW7       29.86S FOG     WCI  23
CHETEK         CLOUDY    29  28  97 CALM      29.85R FOG
LADYSMITH      CLOUDY    28  27  98 NW5       29.83S FOG     WCI  22
EAU CLAIRE     CLOUDY    30  26  85 NW9       29.85R FOG     WCI  22
MENOMONIE      CLOUDY    31  29  93 NW9       29.86S FOG     WCI  23
NEW RICHMOND   CLOUDY    31  31 100 NW13G18   29.89R FOG     WCI  21
OSCEOLA        CLOUDY    32  32 100 NW12      29.93R FOG     WCI  23
$$

WIZ003>005-009-010-017-018-291100-
NORTH CENTRAL WISCONSIN

CITY           SKY/WX    TMP DP  RH WIND       PRES   REMARKS
MANITOWISH WTR CLOUDY    25  25 100 NW7       29.76S FOG     WCI  17
ARBOR VITAE    CLOUDY    27  25  94 NW5       29.76S FOG     WCI  21
WOODRUFF       CLOUDY    27  25  94 NW5       29.76S FOG     WCI  21
RHINELANDER    CLOUDY    25  23  92 W5        29.76S FOG     WCI  19
EAGLE RIVER    CLOUDY    25  23  92 CALM      29.75S FOG
LAND O LAKES   CLOUDY    26  25  97 CALM      29.75S FOG
PHILLIPS       CLOUDY    25  24  99 NW3       29.78S FOG
TOMAHAWK       CLOUDY    25  24  96 CALM      29.78S FOG
MEDFORD        CLOUDY    25  24  96 NW8       29.78S FOG     WCI  17
MERRILL        CLOUDY    26  26 100 CALM      29.78S FOG
$$

WIZ029-030-035-036-043>047-291100-
CENTRAL WISCONSIN

CITY           SKY/WX    TMP DP  RH WIND       PRES   REMARKS
WAUSAU         CLOUDY    26  25  96 NW6       29.76F FOG     WCI  19
MOSINEE        MIX PCPN  27  27 100 NW6       29.78S WCI  20
MARSHFIELD     FOG       27  25  92 NW12      29.79R VSB 1   WCI  17
STEVENS POINT  CLOUDY    25  24  97 CALM      29.78F FOG
WAUPACA        CLOUDY    30  25  82 NW5       29.78F WCI  25
WAUTOMA        NOT AVBL
WISC RAPIDS    CLOUDY    27  24  89 NW5       29.80S FOG     WCI  22
CAMP DOUGLAS   CLOUDY    28  28 100 NW7       29.80S FOG     WCI  21
$$

WIZ011>013-019>022-031-037>040-048>050-291100-
NORTHEAST WISCONSIN

CITY           SKY/WX    TMP DP  RH WIND       PRES   REMARKS
ANTIGO         FOG       24  24  99 NW5       29.76R VSB 1   WCI  19
SHAWANO        CLOUDY    31  26  79 NW3       29.78S
OCONTO         CLOUDY    30  26  82 MISG      29.78S
STURGEON BAY   CLOUDY    32  25  74 W5        29.79S WCI  27
GREEN BAY      CLOUDY    30  25  81 CALM      29.77F HAZE
MANITOWOC      NOT AVBL
APPLETON       CLOUDY    30  25  80 W5        29.77F WCI  25
CLINTONVILLE   CLOUDY    30  25  80 NW5       29.78S WCI  25
OSHKOSH        CLOUDY    30  25  81 CALM      29.75F HAZE
$$

WIZ032>034-041-042-053>061-291100-
SOUTHWEST WISCONSIN

CITY           SKY/WX    TMP DP  RH WIND       PRES   REMARKS
LA CROSSE      CLOUDY    32  28  85 NW13      29.85R WCI  22
SPARTA         CLOUDY    29  29 100 NW3       29.83R FOG
VIROQUA        CLOUDY    30  30 100 NW10G16   29.79R WCI  21
BOSCOBEL       CLOUDY    34  29  82 N7        29.81R HAZE    WCI  28
PRAIRIE DU CHI CLOUDY    32  30  93 NW7       29.81S FOG     WCI  26
PLATTEVILLE    CLOUDY    32  31  94 NW12      29.75R WCI  23
$$

WIZ056-057-062-063-064-067-068-291100-
SOUTH CENTRAL WISCONSIN

CITY           SKY/WX    TMP DP  RH WIND       PRES   REMARKS
REEDSBURG      CLOUDY    29  28  96 NW6       29.77S FOG     WCI  23
BARABOO/DELLS  CLOUDY    29  28  94 NW3       29.76F FOG
LONE ROCK      CLOUDY    32  29  88 NW6       29.78R FOG     WCI  26
MINERAL POINT  MOCLDY    32  32 100 N10       29.74S FOG     WCI  24
MADISON        CLOUDY    31  26  82 N5        29.74S WCI  26
MIDDLETON      CLOUDY    32  28  83 CALM      29.74F
WATERTOWN      CLOUDY    31  25  80 CALM      29.74S
MONROE         CLOUDY    32  30  93 N6        29.71S WCI  26
JANESVILLE     CLOUDY    34  28  80 CALM      29.72S
$$

WIZ051-052-058>065-066-070>072-291100-
SOUTHEAST WISCONSIN

CITY           SKY/WX    TMP DP  RH WIND       PRES   REMARKS
MILWAUKEE      CLOUDY    33  26  75 CALM      29.73F
WAUKESHA       CLOUDY    30  25  80 CALM      29.74F
MILWAUKEE/TIMM CLOUDY    32  27  80 NE3       29.75F
RACINE         CLOUDY    33  27  78 S5        29.74F WCI  29
BURLINGTON     CLOUDY    31  26  81 N3        29.72F
KENOSHA        MOCLDY    31  26  82 NE5       29.72F WCI  26
FOND DU LAC    CLOUDY    30  25  81 N5        29.74F WCI  25
SHEBOYGAN      CLOUDY    31  26  82 W5        29.75F WCI  26
WEST BEND      CLOUDY    32  25  74 CALM      29.73F
JUNEAU         CLOUDY    30  27  88 CALM      29.75F
$$

LSZ147-162-291100-
LAKE SUPERIOR

STATION/POSITION TIME  TEMP    WIND        PRES    WAVE
                       AIR SEA DIR/SP/G            HT/PER
                 (UTC) (F)     (DEG/KT/KT) (MB)    (FT/S)
DEVILS ISLAND    0900   32     320/ 15/ 17 1011.1R
PORT WING        0900   32     290/ 12/ 15 1011.5R
SAXON HARBOR     0900   30     270/  3/  6 1010.2S
$$

LMZ867-665-643>646-291100-
LAKE MICHIGAN

STATION/POSITION TIME  TEMP    WIND        PRES    WAVE
                       AIR SEA DIR/SP/G            HT/PER
                 (UTC) (F)     (DEG/KT/KT) (MB)    (FT/S)
NORTHPORT PIER   0920   31     150/  4/  9 1008.8F
SISTER BAY       0813   31     190/ 11/ 12   N/A
KEWAUNEE LAKESHO 0900   31     250/  3/  7 1008.0F
SHEBOYGAN LAKESH 0900   35     190/ 11/ 12 1008.8F
PORT WASHINGTON  0900   34     180/  5/  7 1008.8
MILWAUKEE LAKESH 0900   33     160/  7/  8   N/A
KENOSHA   LAKESH 0900   33     180/  5/  9 1007.5F
$$

TC  - TEMPERATURE IN CELSIUS
VSB - VISIBILITY IN STATUTE MILES
WCI - WIND CHILL INDEX
HX  - HEAT INDEX



USA.gov is the U.S. government's official web portal to all federal, state and local government web resources and services.